Weather History for Denver, CO

Change the Weather History Date:

Monday, January 28, 2013

  Actual Average Record
Temperature  
Mean Temperature 41 °F 31 °F  
Max Temperature 57 °F 44 °F 69 °F (1888)
Min Temperature 25 °F 17 °F -22 °F (1872)
Degree Days  
Heating Degree Days 24 34  
Month to date heating degree days 945 957  
Since 1 July heating degree days 3178 3425  
Cooling Degree Days 0 0  
Month to date cooling degree days 0 0  
Year to date cooling degree days 0 0  
Moisture  
Dew Point 23 °F    
Average Humidity 59    
Maximum Humidity 92    
Minimum Humidity 26    
Precipitation  
Precipitation 0.19 in 0.01 in 0.63 in (1989)
Month to date precipitation 0.28 0.37  
Year to date precipitation 0.28 0.37  
Snow  
Snow 2.70 in - - ()
Month to date snowfall 4.1  
Since 1 July snowfall 16.5  
Snow Depth 0.00 in    
Sea Level Pressure  
Sea Level Pressure 29.62 in    
Wind  
Wind Speed 14 mph (NE)    
Max Wind Speed 33 mph    
Max Gust Speed 39 mph    
Visibility 7 miles    
Events Fog , Snow    
T = Trace of Precipitation, MM = Missing Value Source: NWS Daily Summary

Daily Weather History Graph

Daily Weather History Graph

Search for Another Location

Airport:

Trip Planner

Search our weather history database for the weather conditions in past years. The results will help you decide how hot, cold, wet, or windy it might be!

Date:

Astronomy

Jan. 28, 2013 Rise Set
Actual Time 7:10 AM MST 5:13 PM MST
Civil Twilight 6:41 AM MST 5:42 PM MST
Nautical Twilight 6:08 AM MST 6:15 PM MST
Astronomical Twilight 5:36 AM MST 6:46 PM MST
Moon 7:10 PM MST (1/28) 7:37 AM MST (1/28)
Length of Visible Light 11h 01m
Length of Day
10h 03m
Full, 97% of the Moon is Illuminated
Jan 28
Full
Feb 3
Last Quarter
Feb 10
New
Feb 17
First Quarter
Feb 25
Full

Hourly Weather History & Observations

Time (MST) Temp. Windchill Dew Point Humidity Pressure Visibility Wind Dir Wind Speed Gust Speed Precip Events Conditions
12:53 AM 43.0 °F 34.5 °F 21.0 °F 42% 29.59 in 10.0 mi SSW 19.6 mph - N/A   Clear
1:53 AM 44.1 °F 36.2 °F 17.1 °F 34% 29.57 in 10.0 mi SSW 18.4 mph - N/A   Scattered Clouds
2:53 AM 46.0 °F 38.0 °F 15.1 °F 29% 29.55 in 10.0 mi SSW 21.9 mph - N/A   Scattered Clouds
3:53 AM 42.1 °F 32.8 °F 16.0 °F 35% 29.55 in 10.0 mi South 21.9 mph - N/A   Scattered Clouds
4:53 AM 42.1 °F 34.2 °F 18.0 °F 38% 29.55 in 10.0 mi South 16.1 mph - N/A   Mostly Cloudy
5:07 AM 33.8 °F 23.9 °F 17.6 °F 52% 29.63 in 10.0 mi SSE 15.0 mph - N/A   Mostly Cloudy
5:53 AM 41.0 °F 32.2 °F 19.0 °F 41% 29.56 in 10.0 mi South 18.4 mph - N/A   Mostly Cloudy
6:53 AM 37.9 °F 30.5 °F 19.0 °F 47% 29.57 in 10.0 mi South 11.5 mph - N/A   Mostly Cloudy
7:53 AM 39.0 °F 34.0 °F 19.9 °F 46% 29.55 in 10.0 mi WSW 6.9 mph - N/A   Scattered Clouds
8:53 AM 37.9 °F 34.4 °F 19.9 °F 48% 29.55 in 9.0 mi West 4.6 mph - N/A   Mostly Cloudy
9:53 AM 46.9 °F - 23.0 °F 39% 29.53 in 10.0 mi WNW 5.8 mph - N/A   Mostly Cloudy
10:53 AM 50.0 °F - 24.1 °F 36% 29.48 in 10.0 mi WNW 5.8 mph - N/A   Scattered Clouds
11:53 AM 55.9 °F - 21.9 °F 27% 29.43 in 10.0 mi SW 11.5 mph 18.4 mph N/A   Scattered Clouds
12:53 PM 51.1 °F - 24.1 °F 35% 29.42 in 10.0 mi North 16.1 mph - N/A   Mostly Cloudy
1:53 PM 48.0 °F - 28.0 °F 46% 29.45 in 10.0 mi North 25.3 mph 32.2 mph N/A   Mostly Cloudy
2:53 PM 41.0 °F 30.5 °F 25.0 °F 53% 29.49 in 10.0 mi NNE 26.5 mph 33.4 mph N/A   Mostly Cloudy
3:53 PM 36.0 °F 24.4 °F 24.1 °F 62% 29.59 in 10.0 mi North 23.0 mph 29.9 mph N/A   Mostly Cloudy
4:14 PM 33.8 °F 22.2 °F 24.8 °F 70% 29.64 in 5.0 mi North 20.7 mph 28.8 mph 0.00 in Snow Light Snow
4:39 PM 32.0 °F 21.6 °F 26.6 °F 80% 29.66 in 2.0 mi NNE 15.0 mph - 0.00 in Snow Light Snow
4:45 PM 32.0 °F 22.1 °F 26.6 °F 80% 29.67 in 1.8 mi NE 13.8 mph - 0.00 in Snow Light Snow
4:53 PM 30.9 °F 20.7 °F 26.1 °F 82% 29.64 in 0.8 mi NE 13.8 mph - 0.01 in Snow Light Snow
5:01 PM 30.2 °F 18.9 °F 26.6 °F 86% 29.66 in 0.8 mi NE 16.1 mph - 0.00 in Snow Light Snow
5:14 PM 30.2 °F 19.3 °F 26.6 °F 86% 29.66 in 0.8 mi NE 15.0 mph - 0.02 in Snow Light Snow
5:24 PM 30.2 °F 20.8 °F 26.6 °F 86% 29.67 in 1.0 mi NNE 11.5 mph - 0.02 in Snow Light Snow
5:32 PM 30.2 °F 20.8 °F 26.6 °F 86% 29.67 in 0.8 mi NE 11.5 mph - 0.03 in Snow Light Snow
5:53 PM 28.9 °F 20.4 °F 26.1 °F 89% 29.69 in 0.8 mi ENE 9.2 mph - 0.05 in Snow Light Snow
6:03 PM 28.4 °F 20.4 °F 26.6 °F 93% 29.69 in 0.5 mi ENE 8.1 mph - 0.02 in Fog , Snow Snow
6:53 PM 28.9 °F 21.1 °F 26.1 °F 89% 29.72 in 0.5 mi NNE 8.1 mph - 0.10 in Snow Light Snow
7:15 PM 28.4 °F 23.3 °F 24.8 °F 86% 29.72 in 1.2 mi ENE 4.6 mph - 0.01 in Snow Light Snow
7:35 PM 28.4 °F 23.3 °F 26.6 °F 93% 29.71 in 1.0 mi NE 4.6 mph - 0.02 in Snow Light Snow
7:48 PM 28.4 °F - 24.8 °F 86% 29.72 in 2.0 mi Calm Calm - 0.03 in Snow Light Snow
7:53 PM 28.0 °F - 26.1 °F 92% 29.73 in 2.0 mi Calm Calm - 0.03 in Snow Light Snow
7:59 PM 28.4 °F - 24.8 °F 86% 29.72 in 3.0 mi Calm Calm - 0.00 in Snow Light Snow
8:53 PM 28.0 °F 20.8 °F 24.1 °F 85% 29.73 in 7.0 mi NNE 6.9 mph - 0.00 in Snow Light Snow
9:53 PM 27.0 °F 16.1 °F 21.9 °F 81% 29.69 in 8.0 mi NE 12.7 mph - 0.00 in Snow Light Snow
10:53 PM 26.1 °F 15.6 °F 21.9 °F 84% 29.69 in 9.0 mi East 11.5 mph - N/A   Overcast
11:00 PM 26.6 °F 15.2 °F 21.2 °F 80% 29.72 in 10.0 mi East 13.8 mph - N/A   Overcast
11:23 PM 26.6 °F 15.2 °F 21.2 °F 80% 29.71 in 10.0 mi ENE 13.8 mph - N/A   Overcast
11:49 PM 26.6 °F 14.3 °F 21.2 °F 80% 29.71 in 8.0 mi ENE 16.1 mph - 0.00 in   Overcast
11:53 PM 25.0 °F 11.7 °F 21.0 °F 85% 29.66 in 8.0 mi ENE 17.3 mph - 0.00 in   Overcast